Regional Weather Roundup
Issued by NWS Newport/Morehead, NC

Current Version | Previous Version | Graphics & Text | Print | Product List | Glossary On
Versions: 1 2 3 4 5 6 7 8 9 10 11 12 13 14 15 16 17 18 19 20 21 22 23 24 25 26 27 28 29 30 31 32 33 34 35 36 37 38 39 40 41 42 43 44 45 46 47 48 49 50
515
ASUS42 KMHX 292125
RWRMHX
WEATHER ROUNDUP FOR EASTERN NORTH CAROLINA
NATIONAL WEATHER SERVICE NEWPORT/MOREHEAD CITY NC
400 PM EST SUN NOV 29 2020

NOTE: "FAIR" INDICATES FEW OR NO CLOUDS BELOW 12,000 FEET
WITH NO SIGNIFICANT WEATHER AND/OR OBSTRUCTIONS TO VISIBILITY

NCZ015>017-031-032-045>047-102-103-292200-
NORTH COAST

CITY           SKY/WX    TMP DP  RH WIND       PRES   REMARKS
EDENTON        PTCLDY    59  52  77 E3        30.13S
ELIZABETH CITY CLEAR     59  50  72 E5        30.13F
KITTY HAWK     CLEAR     58  49  71 CALM      30.12S
MANTEO         CLEAR     58  50  74 E6        30.13S

$$

NCZ045>047-081-094-103-104-292200-
CENTRAL COAST

CITY           SKY/WX    TMP DP  RH WIND       PRES   REMARKS
FRISCO         PTCLDY    65  56  72 SE8       30.11S

$$

NCZ095-097-098-100-101-292200-
SOUTHERN COAST

CITY           SKY/WX    TMP DP  RH WIND       PRES   REMARKS
PINEY ISLAND   NOT AVBL
BEAUFORT       MOCLDY    63  54  72 NE5       30.08F
CAPE CARTERET  MOCLDY    66  55  67 MISG      30.09S
JACKSONVILLE   MOCLDY    66  55  67 E9        30.06F
WILMINGTON     CLOUDY    64  56  75 E8        30.05F


$$

NCZ011>013-027>030-043-044-078>080-089-090>093-098-292200-
COASTAL PLAIN

CITY           SKY/WX    TMP DP  RH WIND       PRES   REMARKS
AHOSKIE        PTCLDY    60  46  59 CALM      30.12S
ROCKY MOUNT    PTCLDY    60  46  59 CALM      30.10F
GREENVILLE     PTCLDY    63  46  55 SE3       30.12R
WASHINGTON     PTCLDY    61  49  65 SE5       30.12R
GOLDSBORO      MOCLDY    63  47  57 E7        30.07F
KINSTON        MOCLDY    64  52  63 SE3       30.10F
NEW BERN       MOCLDY    63  53  70 SE6       30.10F
HAVELOCK       MOCLDY    60  52  74 NE9       30.10F
KENANSVILLE    CLOUDY    63  55  77 CALM      30.08F
RICHLANDS      CLOUDY    65  56  72 NE3       30.08F
CLINTON        CLOUDY    63  52  67 CALM      30.07F
ELIZABETHTOWN  CLOUDY    61  52  71 NE5       30.05F
WHITEVILLE     CLOUDY    62  55  76 NE8       30.04F

$$

AMZ130-135-150-152-154-156-158-170-250-252-270-ANZ085-086-088-633-658-670-292200-
MARINE OBSERVATIONS

STATION/POSITION TIME  TEMP    WIND        PRES    WAVE   SWELL
                       AIR SEA DIR/SP/G            HT/PER HT/PER
                 (UTC) (F)     (DEG/KT/KT) (MB)    (FT/S) (FT/S)
64 E VA BEACH    2110   59 63   70/  6/  8 1020.5
64 E VA BEACH    2030   58 64                N/A     2/ 8
DUCK PIER        2042   60      80/  7/  9 1019.9
2 E DUCK         2056      60                N/A     2/ 9
10 NE DUCK       2056      61                N/A     2/ 9
OREGON INLET     2042   61      60/  6/ 10 1019.8
13E OREGON INLT  2056      62                N/A     3/ 9   2/ 9
HATTERAS CG      2036   66     120/  5/  7 1019.6
DIAMOND BUOY     2110   69 77  140/ 12/ 16   N/A
CAPE LOOKOUT     2000   65      20/ 10/ 12 1019.3
BEAUFORT LAB     2036   65      30/  5/  9 1019.4
30 SE NEW RVR IN 2108   71 73  150/ 14/ 19 1018.0
30 SE NEW RVR IN 2056      73                N/A     3/ 9
27 SE WRIGHTSVLE 2108   71 71  160/ 16/ 21 1017.3
5 SE WRIGHTSVLE  2108   63 67   70/ 16/ 19 1017.2
27 SE WRIGHTSVL  2108   71 71  160/ 16/ 21 1017.3
FRYING PAN BUOY  2100      75  130/ 19/ 23 1015.7
225 S CAPE HAT   NOT AVBL
41 SE CHARLESTON 2110   73 77  130/ 25/ 29 1014.8

$$




USA.gov is the U.S. government's official web portal to all federal, state and local government web resources and services.